Change the Weather History Date:

Sunday, January 5, 2014

  Actual Average Record
Temperature  
Mean Temperature -3 °F -  
Max Temperature 5 °F 26 °F 66 °F (2012)
Min Temperature -11 °F 3 °F -20 °F (1968)
Degree Days  
Heating Degree Days 68    
Moisture  
Dew Point -14 °F    
Average Humidity 60    
Maximum Humidity 100    
Minimum Humidity 34    
Precipitation  
Precipitation 0.00 in - - ()
Sea Level Pressure  
Sea Level Pressure 30.43 in    
Wind  
Wind Speed 16 mph (NW)    
Max Wind Speed 34 mph    
Max Gust Speed 43 mph    
Visibility 10 miles    
Events      
Averages and records for this station are not official NWS values.
T = Trace of Precipitation, MM = Missing Value Source: NWS Daily Summary

Daily Weather History Graph

Daily Weather History Graph

Search for Another Location

Airport or City:

Trip Planner

Search our weather history database for the weather conditions in past years. The results will help you decide how hot, cold, wet, or windy it might be!

Date:

Astronomy

Jan. 05, 2014 Rise Set
Actual Time 8:00 AM CST 5:09 PM CST
Civil Twilight 7:28 AM CST 5:41 PM CST
Nautical Twilight 6:53 AM CST 6:17 PM CST
Astronomical Twilight 6:18 AM CST 6:51 PM CST
Moon 10:35 AM CST (1/5) 10:47 PM CST (1/5)
Length of Visible Light 10h 13m
Length of Day
9h 09m
Waxing Crescent, 25% of the Moon is Illuminated
Jan 5
Waxing Crescent
Jan 7
First Quarter
Jan 15
Full
Jan 23
Last Quarter
Jan 30
New

Hourly Weather History & Observations

Time (CST) Temp. Windchill Dew Point Humidity Pressure Visibility Wind Dir Wind Speed Gust Speed Precip Events Conditions
12:15 AM 1.4 °F -18.2 °F -5.8 °F 72% 30.31 in 10.0 mi NNW 16.1 mph - N/A   Clear
12:35 AM 1.4 °F -18.2 °F -5.8 °F 72% 30.32 in 10.0 mi NNW 16.1 mph 20.7 mph N/A   Clear
12:55 AM 1.4 °F -18.8 °F -5.8 °F 72% 30.31 in 10.0 mi NNW 17.3 mph - N/A   Clear
1:15 AM 1.4 °F -18.2 °F -5.8 °F 72% 30.32 in 10.0 mi NNW 16.1 mph 20.7 mph N/A   Clear
1:35 AM -0.4 °F -17.6 °F -7.6 °F 72% 30.33 in 10.0 mi NNW 11.5 mph - N/A   Clear
1:55 AM -0.4 °F -17.6 °F -7.6 °F 72% 30.34 in 10.0 mi NNW 11.5 mph - N/A   Clear
2:15 AM -0.4 °F -19.9 °F -11.2 °F 60% 30.35 in 10.0 mi NNW 15.0 mph - N/A   Partly Cloudy
2:35 AM -0.4 °F -15.7 °F -9.4 °F 66% 30.35 in 10.0 mi NNW 9.2 mph - N/A   Scattered Clouds
2:55 AM -0.4 °F -17.6 °F -11.2 °F 60% 30.35 in 10.0 mi NNW 11.5 mph - N/A   Partly Cloudy
3:15 AM -2.2 °F -20.7 °F -9.4 °F 71% 30.36 in 10.0 mi NW 12.7 mph - N/A   Clear
3:35 AM -2.2 °F -21.5 °F -11.2 °F 66% 30.36 in 10.0 mi NW 13.8 mph - N/A   Clear
3:55 AM -2.2 °F -18.9 °F -11.2 °F 66% 30.37 in 10.0 mi NW 10.4 mph - N/A   Clear
4:15 AM -2.2 °F -20.7 °F -9.4 °F 71% 30.36 in 10.0 mi NW 12.7 mph 17.3 mph N/A   Partly Cloudy
4:35 AM -2.2 °F -20.7 °F -14.8 °F 55% 30.37 in 10.0 mi NW 12.7 mph - N/A   Partly Cloudy
4:55 AM -2.2 °F -22.2 °F -11.2 °F 66% 30.38 in 10.0 mi NNW 15.0 mph - N/A   Clear
5:15 AM -2.2 °F -19.9 °F -9.4 °F 71% 30.38 in 10.0 mi NNW 11.5 mph - N/A   Clear
5:35 AM -2.2 °F -19.9 °F -11.2 °F 66% 30.37 in 10.0 mi NNW 11.5 mph - N/A   Clear
5:55 AM -2.2 °F -18.0 °F -11.2 °F 66% 30.38 in 10.0 mi NNW 9.2 mph - N/A   Clear
6:15 AM -2.2 °F -16.8 °F -11.2 °F 66% 30.39 in 10.0 mi NNW 8.1 mph - N/A   Clear
6:35 AM -2.2 °F -15.6 °F -9.4 °F 71% 30.39 in 10.0 mi NW 6.9 mph - N/A   Clear
6:55 AM -4.0 °F -17.8 °F -11.2 °F 71% 30.40 in 10.0 mi NW 6.9 mph - N/A   Clear
7:15 AM -4.0 °F -16.3 °F -11.2 °F 71% 30.40 in 10.0 mi NW 5.8 mph - N/A   Clear
7:35 AM -4.0 °F -14.6 °F -9.4 °F 78% 30.41 in 10.0 mi NW 4.6 mph - N/A   Clear
7:55 AM -4.0 °F -16.3 °F -9.4 °F 78% 30.41 in 10.0 mi NW 5.8 mph - N/A   Clear
8:15 AM -4.0 °F -14.6 °F -9.4 °F 78% 30.42 in 10.0 mi WNW 4.6 mph - N/A   Clear
8:35 AM -2.2 °F -14.2 °F -5.8 °F 85% 30.43 in 10.0 mi WNW 5.8 mph - N/A   Clear
8:55 AM -2.2 °F -14.2 °F -13.0 °F 60% 30.43 in 10.0 mi West 5.8 mph - N/A   Clear
9:15 AM -0.4 °F -12.0 °F -4.0 °F 85% 30.44 in 10.0 mi WNW 5.8 mph - N/A   Clear
9:35 AM -0.4 °F -14.7 °F -9.4 °F 66% 30.44 in 10.0 mi WNW 8.1 mph - N/A   Clear
9:55 AM 1.4 °F -16.1 °F -7.6 °F 66% 30.44 in 10.0 mi NW 12.7 mph 18.4 mph N/A   Clear
10:15 AM 1.4 °F -14.5 °F -7.6 °F 66% 30.45 in 10.0 mi NW 10.4 mph 17.3 mph N/A   Clear
10:35 AM 3.2 °F -13.9 °F -9.4 °F 56% 30.45 in 10.0 mi NW 12.7 mph 17.3 mph N/A   Clear
10:55 AM 3.2 °F -17.1 °F -5.8 °F 66% 30.45 in 10.0 mi NW 18.4 mph - N/A   Partly Cloudy
11:15 AM 3.2 °F -15.9 °F -9.4 °F 56% 30.44 in 10.0 mi NW 16.1 mph - N/A   Clear
11:35 AM 3.2 °F -18.6 °F -5.8 °F 66% 30.44 in 10.0 mi NW 21.9 mph 26.5 mph N/A   Scattered Clouds
11:55 AM 3.2 °F -19.9 °F -9.4 °F 56% 30.44 in 10.0 mi NNW 25.3 mph 32.2 mph N/A   Partly Cloudy
12:15 PM 3.2 °F -19.5 °F -7.6 °F 61% 30.44 in 10.0 mi NNW 24.2 mph 29.9 mph N/A   Scattered Clouds
12:35 PM 3.2 °F -18.6 °F -11.2 °F 51% 30.44 in 10.0 mi NW 21.9 mph 29.9 mph N/A   Scattered Clouds
12:55 PM 3.2 °F -20.3 °F -7.6 °F 61% 30.43 in 10.0 mi NW 26.5 mph 29.9 mph N/A   Partly Cloudy
1:15 PM 1.4 °F -19.9 °F -9.4 °F 61% 30.43 in 10.0 mi NW 19.6 mph 29.9 mph N/A   Clear
1:35 PM 3.2 °F -18.1 °F -7.6 °F 61% 30.42 in 10.0 mi NW 20.7 mph 29.9 mph N/A   Partly Cloudy
1:55 PM 3.2 °F -19.5 °F -13.0 °F 47% 30.41 in 10.0 mi NW 24.2 mph 31.1 mph N/A   Partly Cloudy
2:15 PM 5.0 °F -17.5 °F -11.2 °F 47% 30.41 in 10.0 mi NW 25.3 mph 33.4 mph N/A   Partly Cloudy
2:35 PM 3.2 °F -20.3 °F -13.0 °F 47% 30.41 in 10.0 mi WNW 26.5 mph 34.5 mph N/A   Scattered Clouds
2:55 PM 1.4 °F -22.7 °F -13.0 °F 51% 30.42 in 10.0 mi NW 26.5 mph 34.5 mph N/A   Mostly Cloudy
3:15 PM 1.4 °F -21.9 °F -13.0 °F 51% 30.43 in 10.0 mi NW 24.2 mph 33.4 mph N/A   Mostly Cloudy
3:35 PM - - - N/A% 30.44 in 1.2 mi NW 34.5 mph 42.6 mph N/A   Overcast
3:55 PM -2.2 °F -28.4 °F -14.8 °F 55% 30.47 in 5.0 mi NNW 28.8 mph 39.1 mph N/A   Mostly Cloudy
4:15 PM -2.2 °F -28.8 °F -14.8 °F 55% 30.48 in 10.0 mi NW 29.9 mph 38.0 mph N/A   Mostly Cloudy
4:35 PM -4.0 °F -30.9 °F -25.6 °F 35% 30.49 in 10.0 mi NW 28.8 mph 38.0 mph N/A   Partly Cloudy
4:55 PM -5.8 °F -30.5 °F -25.6 °F 38% 30.50 in 10.0 mi NW 21.9 mph 38.0 mph N/A   Scattered Clouds
5:15 PM -5.8 °F -31.0 °F - N/A% 30.51 in 10.0 mi NW 23.0 mph 29.9 mph N/A   Partly Cloudy
5:35 PM -7.6 °F -34.8 °F -29.2 °F 34% 30.51 in 6.0 mi NW 26.5 mph 33.4 mph N/A   Scattered Clouds
5:55 PM -7.6 °F -32.3 °F -29.2 °F 34% 30.52 in 10.0 mi WNW 20.7 mph 35.7 mph N/A   Partly Cloudy
6:15 PM -7.6 °F -32.9 °F -29.2 °F 34% 30.52 in 10.0 mi NW 21.9 mph 29.9 mph N/A   Clear
6:35 PM -9.4 °F -34.1 °F -27.4 °F 41% 30.52 in 10.0 mi NW 19.6 mph 31.1 mph N/A   Clear
6:55 PM -9.4 °F -36.3 °F -27.4 °F 41% 30.52 in 10.0 mi NW 24.2 mph 32.2 mph N/A   Clear
7:15 PM -9.4 °F -34.1 °F -27.4 °F 41% 30.52 in 10.0 mi NW 19.6 mph 27.6 mph N/A   Clear
7:35 PM -9.4 °F -35.8 °F -25.6 °F 45% 30.52 in 10.0 mi WNW 23.0 mph 29.9 mph N/A   Clear
7:55 PM -9.4 °F -34.7 °F -23.8 °F 49% 30.52 in 10.0 mi NW 20.7 mph 27.6 mph N/A   Clear
8:15 PM -9.4 °F -34.7 °F -27.4 °F 41% 30.52 in 10.0 mi NW 20.7 mph 29.9 mph N/A   Clear
8:35 PM -9.4 °F -34.1 °F -25.6 °F 45% 30.52 in 10.0 mi NW 19.6 mph 23.0 mph N/A   Clear
8:55 PM -9.4 °F -32.1 °F -23.8 °F 49% 30.52 in 10.0 mi WNW 16.1 mph 23.0 mph N/A   Clear
9:15 PM -9.4 °F -34.1 °F -25.6 °F 45% 30.51 in 10.0 mi WNW 19.6 mph 25.3 mph N/A   Clear
9:35 PM -9.4 °F -33.5 °F -18.4 °F 65% 30.51 in 10.0 mi WNW 18.4 mph 26.5 mph N/A   Scattered Clouds
9:55 PM -9.4 °F -36.3 °F -29.2 °F 37% 30.50 in 10.0 mi NW 24.2 mph 28.8 mph N/A   Scattered Clouds
10:15 PM -9.4 °F -33.5 °F -9.4 °F 100% 30.50 in 7.0 mi WNW 18.4 mph - N/A   Mostly Cloudy
10:35 PM -9.4 °F -35.8 °F - N/A% 30.50 in 10.0 mi WNW 23.0 mph 31.1 mph N/A   Mostly Cloudy
10:55 PM -9.4 °F -36.8 °F - N/A% 30.49 in 10.0 mi WNW 25.3 mph 29.9 mph N/A   Scattered Clouds
11:15 PM -11.2 °F -38.2 °F - N/A% 30.49 in 10.0 mi WNW 23.0 mph 29.9 mph N/A   Partly Cloudy
11:35 PM -11.2 °F -39.7 °F - N/A% 30.48 in 10.0 mi WNW 26.5 mph 32.2 mph N/A   Partly Cloudy
11:55 PM -11.2 °F -37.6 °F - N/A% 30.47 in 10.0 mi WNW 21.9 mph 31.1 mph N/A   Clear